Regional Weather Roundup
Issued by NWS

Home | Current Version | Previous Version | Graphics & Text | Print | Product List | Glossary On
Versions: 1 2 3 4 5 6 7 8 9 10 11 12 13 14 15 16 17 18 19 20 21 22 23 24 25 26 27 28 29 30 31 32 33 34 35 36 37 38 39 40 41 42 43 44 45 46 47 48 49 50
950
ASUS43 KOAX 161910
RWRNE

WEATHER ROUNDUP FOR NEBRASKA
NATIONAL WEATHER SERVICE OMAHA NE
100 PM CST SAT DEC 16 2017

NOTES: SATELLITE DATA IS BEING USED TO AUGMENT CLOUD COVER ABOVE
       12000 FEET.
       "FAIR" INDICATES FEW OR NO CLOUDS BELOW 12,000 FEET WITH NO
       SIGNIFICANT WEATHER AND/OR OBSTRUCTIONS TO VISIBILITY.


NEZ001>004-019>022-054>056-162000-
NEBRASKA PANHANDLE

CITY           SKY/WX    TMP DP  RH WIND       PRES   REMARKS
SCOTTSBLUFF    PTSUNNY   43  26  51 NE8       29.88F
ALLIANCE       CLOUDY    37  28  70 NE20      29.89S WCI  27
CHADRON        CLOUDY    39  29  67 NE12      29.94F WCI  32
GORDON         CLOUDY    36  30  80 N12       29.91F WCI  28
KIMBALL        SUNNY     43  19  37 NE16      29.85S
SIDNEY         MOSUNNY   47  23  38 NE18G26   29.84F
$$

NEZ057>060-069>072-079>082-162000-
SOUTHWEST NEBRASKA

CITY           SKY/WX    TMP DP  RH WIND       PRES   REMARKS
NORTH PLATTE   CLOUDY    47  28  47 NE18G28   29.83S
IMPERIAL       CLOUDY    49  26  41 NE23      29.80F
LEXINGTON      PTSUNNY   51  26  37 N16       29.81F
MCCOOK         CLOUDY    55  22  27 NE18G30   29.78F
OGALLALA       MOSUNNY   48  28  44 NE16      29.84S
$$

NEZ005>010-023>029-035>040-094-162000-
NORTH CENTRAL NEBRASKA

CITY           SKY/WX    TMP DP  RH WIND       PRES   REMARKS
VALENTINE      CLOUDY    40  31  70 N12       29.92S WCI  33
AINSWORTH      CLOUDY    38  33  82 N16       29.90F WCI  29
BROKEN BOW     MOSUNNY   44  28  53 N13       29.83F
O`NEILL        MOSUNNY   43  33  68 N12       29.89S
ORD            CLOUDY    47  28  47 N15       29.84F
THEDFORD       CLOUDY    40  33  74 N16G22    29.88F WCI  32
$$

NEZ041-046>049-061>064-073>077-083>087-162000-
SOUTH CENTRAL NEBRASKA

CITY           SKY/WX    TMP DP  RH WIND       PRES   REMARKS
GRAND ISLAND   SUNNY     51  28  41 NE18      29.82F
AURORA         CLOUDY    51  28  40 NE15      29.82S
HASTINGS       CLOUDY    53  24  32 NE16      29.82R
HEBRON         SUNNY     53  22  29 E3        29.82S
HOLDREGE       CLOUDY    54  26  33 NE15      29.80S
KEARNEY        CLOUDY    53  25  33 NE17      29.81S
YORK           MOSUNNY   52  27  37 NE18      29.82S
$$

NEZ011>018-030>034-042>045-162000-
NORTHEAST NEBRASKA

CITY           SKY/WX    TMP DP  RH WIND       PRES   REMARKS
NORFOLK        MOSUNNY   46  28  49 N10       29.85S
ALBION         MOSUNNY   47  30  51 N14       29.86S
BLAIR          MOSUNNY   51  27  39 N7        29.83S
COLUMBUS       SUNNY     50  28  42 N13       29.85F
FREMONT        PTSUNNY   50  26  39 N6        29.85F
TEKAMAH        CLOUDY    48  26  42 NW7       29.85S
WAYNE          CLOUDY    45  28  50 N7        29.86F
$$

NEZ050>053-065>068-078-088>093-162000-
SOUTHEAST NEBRASKA

CITY           SKY/WX    TMP DP  RH WIND       PRES   REMARKS
LINCOLN        CLOUDY    54  25  32 NE13      29.84S
OMAHA EPPLEY   PTSUNNY   51  25  36 N8        29.84F
BEATRICE       SUNNY     51  25  35 S5        29.83S
FALLS CITY     SUNNY     53  25  33 S9        29.84S
NEBRASKA CITY  SUNNY     49  25  39 CALM      29.83F
PLATTSMOUTH    SUNNY     50  26  39 N5        29.83F
$$

NEZ044-045-051>053-067-162000-
OMAHA AREA

CITY           SKY/WX    TMP DP  RH WIND       PRES   REMARKS
OMAHA EPPLEY   PTSUNNY   51  25  36 N8        29.84F
BLAIR          MOSUNNY   51  27  39 N7        29.83S
FREMONT        PTSUNNY   50  26  39 N6        29.85F
MILLARD        CLOUDY    53  27  37 N5        29.83F
OFFUTT AFB     CLOUDY    53  24  32 NE8       29.83F
PLATTSMOUTH    SUNNY     50  26  39 N5        29.83F
WAHOO          FAIR      51  25  35 N9        29.84F
$$




USA.gov is the U.S. government's official web portal to all federal, state and local government web resources and services.